Wetbulb
64.77 62.03 60.10 57.69 47.33 47.20 45.14 48.55 59.44 56.50 57.81 61.82 64.60 64.62 65.76 67.83 65.68 59.15 70.73 72.62 73.65 74.87 76.53 77.56 77.99 77.64 77.18 76.60 76.70 76.65 76.97 77.24 77.42 77.00 76.28 77.20 77.45 77.38 77.03 76.43 76.25 75.79 75.11 74.45 73.73 72.91 72.21 71.09 70.35
60.95 60.66 58.02 51.16 43.65 40.80 45.84 54.33 55.24 57.63 58.90 62.44 65.13 67.08 65.95 65.60 71.05 70.31 67.95 72.29 73.90 74.62 75.60 76.85 77.76 77.46 76.93 76.50 76.57 76.75 77.22 77.49 77.24 76.55 76.23 76.78 77.38 77.30 77.23 76.73 76.43 75.88 75.17 74.68 74.18 73.44 72.39 71.67 70.98
62.05 59.43 49.27 46.84 44.65 42.69 45.92 55.67 57.72 59.58 60.69 62.36 62.98 67.26 66.59 67.33 71.46 71.44 69.83 73.22 72.94 73.57 75.57 77.05 77.41 77.03 76.83 76.45 76.45 76.97 77.24 77.24 76.92 76.35 76.05 76.38 77.10 76.98 76.85 76.78 76.58 75.98 75.32 74.92 74.51 73.82 72.94 72.06 70.49
55.92 51.54 49.18 43.26 43.72 48.95 52.28 54.59 58.93 59.93 60.49 64.07 66.33 63.02 67.20 71.67 71.45 69.62 71.48 72.56 71.87 74.12 75.86 77.43 77.25 77.03 76.88 76.68 76.63 77.12 77.22 77.07 76.75 76.30 76.00 76.08 76.92 77.27 76.65 76.80 76.70 76.45 75.73 75.08 74.55 74.23 73.86 72.73 71.17
52.76 48.68 42.56 42.50 43.75 48.38 55.09 56.52 54.31 53.43 58.68 59.41 65.10 65.41 66.29 72.10 72.55 69.65 70.22 70.96 71.95 73.94 75.67 76.66 77.15 77.13 76.88 76.88 76.83 76.92 77.02 76.77 76.52 76.13 75.75 75.95 76.82 77.09 77.12 76.88 76.73 76.77 76.80 75.37 74.88 74.47 74.27 73.90 72.65
47.24 47.04 40.17 39.42 44.23 48.90 54.15 55.26 54.32 53.60 58.64 59.15 64.15 66.15 66.04 72.04 70.79 68.99 70.16 69.65 74.28 73.75 75.08 76.13 77.20 77.05 76.75 76.65 76.87 76.77 76.49 76.49 76.19 75.85 75.62 75.92 76.39 76.71 76.87 76.78 76.65 76.73 76.78 76.63 75.77 75.50 75.05 74.62 74.27
43.80 42.59 40.75 43.38 46.08 47.99 50.54 53.11 52.31 52.67 55.47 60.46 67.43 64.35 66.84 70.25 70.74 70.30 69.37 73.08 73.48 73.28 74.07 75.19 75.91 76.57 76.98 76.59 76.59 76.51 76.23 76.08 75.89 75.51 75.56 75.66 76.06 76.29 76.59 76.49 76.70 76.86 76.35 76.43 76.60 75.97 75.49 75.09 74.84
46.93 43.58 42.22 44.15 45.03 45.49 50.91 50.52 49.56 51.42 55.54 69.79 68.65 61.69 64.31 69.28 71.30 69.93 69.57 72.36 71.90 72.45 73.17 73.19 74.32 75.14 75.33 75.55 76.59 76.36 76.21 75.96 75.56 75.49 75.48 75.51 75.88 76.13 76.24 75.68 76.22 76.38 76.15 76.40 76.30 76.11 75.51 74.89 74.02
48.88 40.27 39.06 44.16 45.35 46.95 49.54 48.40 52.23 55.15 54.06 63.10 64.48 66.28 68.12 71.59 72.19 69.14 68.40 70.08 70.06 70.90 71.40 72.02 73.04 73.05 73.64 73.79 75.44 76.01 76.13 75.94 75.52 75.14 75.29 74.53 72.93 73.90 74.98 75.09 75.44 75.80 75.77 75.95 76.37 75.96 75.34 74.76 74.37
45.36 39.71 43.02 49.25 50.23 47.59 49.28 49.88 51.56 52.68 53.39 61.69 64.93 63.77 66.69 72.11 71.63 69.69 68.19 67.39 67.52 67.56 69.24 70.27 70.12 71.48 71.92 74.15 73.76 72.66 73.68 73.58 72.92 72.44 72.36 70.61 69.10 71.29 73.58 74.03 75.62 75.60 75.45 75.44 75.66 75.95 75.63 75.01 72.31
46.31 43.14 47.53 49.87 49.93 50.92 48.96 50.63 52.06 50.04 48.97 59.87 63.73 64.37 66.00 64.33 69.96 70.18 69.86 67.18 66.66 67.11 68.06 68.40 68.19 68.00 67.83 70.30 71.51 71.08 71.38 70.94 70.84 69.97 71.05 69.03 68.69 69.14 70.88 71.69 73.22 72.32 74.43 72.14 73.48 73.83 74.46 73.38 72.63
43.12 48.20 49.25 50.28 51.28 48.74 48.42 50.49 50.44 50.12 50.44 65.00 65.90 65.98 66.85 65.00 65.89 68.57 68.85 68.42 68.33 67.95 67.30 67.35 67.50 67.18 66.24 70.71 69.31 69.60 69.96 69.47 69.56 69.17 70.27 68.20 67.46 68.65 69.14 70.28 70.05 70.12 70.12 69.79 69.92 70.72 71.09 71.81 72.04
46.32 48.06 49.80 50.69 49.29 47.98 50.09 48.52 49.12 49.35 53.65 64.75 64.57 63.41 63.09 62.52 65.12 66.57 67.89 67.13 66.10 67.10 67.09 67.86 68.01 67.14 68.83 69.40 68.34 68.72 69.34 69.61 69.63 69.48 70.97 70.06 69.12 69.78 69.95 69.57 69.02 68.68 67.49 67.71 67.15 69.17 70.27 70.46 70.85
50.40 49.44 49.21 49.38 48.80 47.45 47.74 48.08 47.97 50.38 53.80 60.19 59.80 60.41 62.40 63.01 63.48 66.52 64.23 62.33 62.50 64.95 67.33 69.34 68.35 68.62 70.46 69.25 68.48 67.93 68.51 69.47 69.72 69.75 71.44 70.56 70.90 70.37 71.22 69.83 70.50 68.69 67.99 68.11 67.60 68.46 67.80 69.38 66.87
51.43 47.67 48.83 49.10 49.46 47.99 49.67 46.51 47.19 50.97 52.69 51.78 59.19 59.42 61.48 64.52 66.50 65.50 66.49 62.53 62.64 65.50 68.73 70.04 69.39 70.83 70.29 71.37 71.85 69.94 69.05 69.95 69.89 70.73 71.53 71.48 72.42 71.61 72.58 70.76 69.49 69.69 69.31 68.29 67.81 67.78 68.16 67.79 68.28
48.09 47.09 42.06 48.02 50.44 51.28 48.53 43.01 49.37 51.48 50.73 51.06 53.62 60.19 61.37 64.07 63.65 67.68 67.99 68.43 67.58 67.66 69.22 70.87 71.78 70.73 70.78 71.18 72.41 72.24 71.97 70.97 70.89 70.60 72.76 72.26 72.24 72.59 73.01 70.70 71.57 70.56 70.02 69.07 66.91 66.73 67.06 67.34 67.95
44.89 41.67 44.05 47.20 51.15 50.15 48.46 44.54 49.71 51.61 50.53 50.46 51.52 54.43 54.84 63.13 64.57 67.23 68.83 65.27 64.96 66.19 69.60 68.91 72.13 71.57 72.44 72.73 72.00 72.08 71.97 71.17 71.39 71.54 71.69 73.06 73.49 72.99 71.61 71.62 70.47 71.27 69.99 68.65 68.41 67.02 68.38 67.33 66.50
41.89 42.63 43.87 44.53 48.70 49.00 46.70 46.01 49.34 50.99 50.64 50.22 51.11 52.59 58.13 61.59 62.19 65.91 64.54 64.91 63.11 61.59 65.22 71.82 72.69 72.61 71.99 72.83 72.66 71.79 70.68 70.73 71.29 70.58 70.58 72.94 73.44 73.06 71.49 72.03 71.13 71.10 70.31 68.93 68.46 67.75 67.73 68.53 66.54
48.05 46.55 45.48 48.09 50.50 47.92 46.79 46.47 48.40 50.34 49.18 49.43 49.83 51.42 58.80 60.70 63.22 64.38 65.60 62.71 62.87 64.63 70.31 72.16 71.87 73.27 72.77 71.26 70.08 69.95 69.76 69.17 70.38 70.69 71.44 73.26 73.06 73.16 72.48 71.08 71.27 72.08 70.20 68.61 68.70 67.25 66.79 67.86 67.90
48.09 45.62 44.80 48.09 50.74 49.04 47.05 46.73 48.46 49.83 49.75 49.90 51.31 52.85 58.08 59.21 61.60 63.75 64.33 64.72 65.28 65.80 66.73 67.46 71.00 73.65 73.86 73.12 71.03 70.91 70.69 70.98 70.82 70.90 71.01 73.67 73.28 72.77 72.75 72.36 71.15 70.90 70.67 69.82 69.80 69.19 67.78 67.79 68.03
47.13 44.76 45.14 45.50 48.86 49.35 47.40 45.60 46.57 49.85 50.60 52.06 52.90 54.31 58.92 59.71 59.83 61.62 63.92 64.27 65.37 65.12 65.55 65.92 65.74 67.57 67.44 69.13 73.66 73.76 73.51 73.28 72.00 70.63 70.54 71.19 73.54 73.40 72.91 72.66 72.33 71.61 70.84 69.88 70.00 69.76 68.13 65.49 66.00
43.28 49.49 49.15 47.94 44.82 38.77 46.69 39.27 43.82 47.53 48.68 52.57 53.74 53.97 58.03 59.35 60.05 61.31 62.25 63.16 64.73 66.45 68.27 68.26 67.29 65.52 66.59 68.05 68.11 68.85 70.76 70.05 70.65 70.87 71.22 71.63 73.25 73.44 73.57 73.00 72.65 71.64 71.87 70.38 70.24 70.47 68.86 67.14 64.88
46.82 50.57 48.25 47.78 44.01 41.53 43.67 38.12 42.51 47.11 47.08 49.98 52.79 54.85 57.43 58.92 59.18 58.86 60.38 62.60 63.17 64.53 64.91 65.99 66.50 67.26 68.79 67.77 65.79 66.08 67.06 70.89 71.35 71.67 71.78 71.07 72.26 72.91 73.35 73.49 72.91 72.11 71.89 71.18 70.21 69.31 68.86 68.64 66.65
51.87 49.03 46.86 44.68 42.13 36.12 41.65 40.32 42.95 43.73 48.22 51.29 53.82 54.72 57.43 58.51 58.62 58.26 59.06 59.75 60.53 61.34 63.12 62.38 62.26 63.22 64.82 66.64 67.14 67.75 67.68 68.40 68.49 69.20 69.37 69.45 70.64 72.00 71.51 71.91 71.95 65.18 62.72 69.81 68.59 68.16 69.32 68.88 67.83
48.00 43.62 35.70 34.13 33.83 35.25 42.89 41.22 41.25 48.60 50.73 49.35 54.02 54.94 56.38 57.99 57.66 57.61 57.10 57.56 58.33 59.20 59.83 61.79 60.41 60.91 62.06 63.35 63.99 64.60 65.16 65.93 66.40 66.60 67.07 67.57 68.83 68.13 66.31 66.29 65.72 64.83 62.17 63.80 65.32 68.26 68.96 68.24 67.21
45.71 44.39 38.19 32.12 31.35 35.71 43.64 37.49 42.64 50.73 52.36 51.34 52.32 54.12 56.44 56.70 56.40 56.55 57.10 57.33 57.97 58.85 58.74 59.91 60.01 59.58 60.67 61.09 61.58 63.09 63.39 63.44 63.72 63.92 64.84 65.70 65.73 66.82 65.57 64.38 64.95 63.87 62.56 63.77 62.57 63.17 69.69 68.86 68.11
45.37 40.11 45.89 40.75 39.68 37.93 40.46 44.34 49.99 49.08 49.99 52.44 51.08 51.31 52.51 52.57 54.96 54.53 55.06 55.28 57.26 57.42 56.38 56.19 56.99 58.78 58.80 59.52 60.22 60.39 61.13 61.28 61.78 62.35 63.22 63.44 64.05 66.65 67.16 64.74 62.40 62.68 63.10 60.97 60.22 61.20 68.28 68.97 69.18
46.90 48.47 38.59 39.67 32.95 31.39 36.91 38.85 40.16 44.30 47.12 50.44 50.07 50.71 51.78 53.55 53.71 54.34 54.45 53.66 53.15 53.58 54.05 54.53 54.24 55.95 55.53 55.44 56.22 58.24 58.74 60.59 60.43 61.26 60.95 61.51 62.05 63.37 65.35 65.77 64.03 61.82 61.42 60.11 60.02 63.14 67.54 68.26 68.87
42.19 41.50 41.90 41.59 40.50 32.47 29.42 35.89 45.29 45.16 47.76 47.86 49.27 50.72 51.24 51.50 52.64 52.87 54.29 54.12 53.50 52.21 53.17 53.08 52.87 53.10 54.10 54.49 55.11 56.04 56.01 57.34 58.25 58.44 59.50 60.04 59.96 61.35 62.08 64.34 65.57 65.11 62.01 61.36 60.91 63.49 65.58 65.16 67.20
44.73 41.93 41.52 33.93 32.48 35.26 34.08 33.69 48.01 47.17 48.40 48.86 49.38 49.97 50.76 51.23 51.87 52.27 52.66 53.20 52.97 52.65 52.56 52.09 52.73 52.05 52.17 53.38 53.41 54.60 55.56 56.27 55.68 55.81 56.62 57.96 58.39 59.59 60.84 62.01 62.84 63.35 65.88 63.06 61.98 61.47 62.35 64.34 64.43
MSLP
1011.73 1011.49 1011.86 1011.72 1012.00 1011.45 1010.02 1008.92 1009.50 1006.27 1005.03 1004.95 1004.51 1005.37 1006.67 1006.97 1007.59 1009.20 1009.79 1009.95 1010.93 1012.31 1012.39 1012.67 1013.41 1013.92 1014.23 1014.53 1015.11 1015.56 1015.93 1016.21 1016.51 1016.79 1016.95 1017.23 1017.50 1017.72 1017.99 1018.18 1018.37 1018.49 1018.62 1018.78 1018.89 1018.94 1018.94 1018.93 1019.08
1011.54 1011.41 1011.33 1011.42 1011.71 1011.11 1009.13 1007.50 1006.99 1006.26 1005.25 1004.79 1004.85 1005.46 1006.10 1007.43 1007.64 1008.68 1009.82 1010.38 1011.03 1012.18 1012.52 1012.88 1013.28 1014.06 1014.56 1014.71 1015.19 1015.68 1016.17 1016.50 1016.76 1017.02 1017.27 1017.47 1017.68 1017.85 1018.02 1018.33 1018.53 1018.69 1018.80 1018.89 1018.99 1019.10 1019.13 1019.15 1019.30
1011.76 1011.72 1011.88 1011.30 1011.14 1010.14 1008.49 1007.09 1005.48 1005.10 1004.59 1004.73 1005.28 1005.65 1006.32 1007.41 1007.72 1008.18 1009.16 1010.23 1011.17 1012.11 1012.66 1013.03 1013.34 1013.90 1014.64 1014.85 1015.20 1015.70 1016.31 1016.64 1016.88 1017.18 1017.39 1017.61 1017.82 1017.94 1018.13 1018.38 1018.56 1018.76 1018.92 1019.04 1019.13 1019.22 1019.26 1019.27 1019.37
1011.66 1011.55 1011.43 1011.14 1010.55 1008.34 1007.02 1005.57 1005.62 1005.22 1004.99 1004.79 1005.48 1006.66 1007.08 1007.15 1007.31 1008.11 1009.37 1010.36 1011.22 1012.21 1012.76 1013.11 1013.44 1013.90 1014.43 1014.92 1015.19 1015.66 1016.17 1016.66 1016.94 1017.12 1017.48 1017.80 1018.02 1018.16 1018.25 1018.43 1018.61 1018.81 1018.95 1019.10 1019.24 1019.29 1019.41 1019.52 1019.44
1011.67 1011.62 1011.67 1010.90 1009.08 1007.43 1005.68 1004.17 1004.42 1004.57 1005.64 1004.85 1005.05 1007.12 1007.49 1007.41 1007.43 1008.39 1009.42 1010.27 1011.18 1012.50 1012.99 1013.28 1013.39 1013.88 1014.39 1014.85 1015.31 1015.71 1016.20 1016.64 1016.89 1017.21 1017.54 1017.81 1018.10 1018.23 1018.43 1018.48 1018.61 1018.75 1018.89 1019.11 1019.23 1019.44 1019.54 1019.52 1019.39
1012.01 1011.39 1011.68 1010.96 1008.98 1006.89 1005.35 1004.07 1003.13 1003.51 1005.11 1004.89 1006.29 1007.32 1008.16 1007.43 1007.58 1008.40 1009.01 1009.86 1011.09 1012.38 1013.11 1013.53 1013.69 1013.80 1014.29 1014.82 1015.22 1015.68 1016.15 1016.63 1016.96 1017.30 1017.57 1017.93 1018.14 1018.28 1018.51 1018.52 1018.53 1018.69 1018.80 1019.07 1019.25 1019.49 1019.64 1019.61 1019.50
1011.91 1012.20 1011.51 1010.62 1008.89 1006.75 1004.48 1003.14 1003.13 1003.15 1004.19 1005.74 1005.84 1007.17 1009.61 1008.51 1007.58 1007.79 1008.53 1010.14 1011.07 1011.72 1012.94 1013.67 1013.99 1014.10 1014.43 1014.72 1015.20 1015.67 1016.11 1016.61 1016.91 1017.25 1017.61 1017.85 1018.11 1018.37 1018.60 1018.65 1018.65 1018.70 1018.74 1018.99 1019.17 1019.44 1019.57 1019.58 1019.52
1011.16 1011.78 1011.35 1010.04 1008.49 1006.65 1005.24 1003.44 1002.75 1002.66 1003.50 1004.98 1005.66 1007.77 1008.29 1007.88 1007.75 1007.79 1008.54 1010.09 1011.10 1012.10 1012.80 1013.72 1014.23 1014.53 1014.70 1015.02 1015.22 1015.56 1015.84 1016.36 1016.78 1017.11 1017.45 1017.76 1017.98 1018.17 1018.54 1018.60 1018.65 1018.68 1018.84 1018.91 1019.08 1019.35 1019.48 1019.53 1019.44
1010.68 1011.53 1011.26 1009.58 1007.77 1006.71 1005.24 1003.94 1002.76 1002.53 1003.00 1004.11 1005.33 1005.44 1006.43 1006.91 1007.53 1007.84 1009.11 1010.39 1011.47 1012.28 1012.65 1013.36 1014.16 1014.61 1014.93 1015.23 1015.57 1015.75 1015.94 1016.11 1016.49 1016.91 1017.30 1017.66 1017.88 1017.93 1018.15 1018.44 1018.51 1018.65 1018.72 1018.90 1018.91 1019.09 1019.28 1019.25 1019.13
1010.71 1010.97 1010.39 1008.72 1007.63 1006.92 1005.89 1004.76 1003.97 1003.62 1003.66 1005.44 1006.06 1006.34 1006.86 1007.08 1007.70 1008.23 1008.95 1010.28 1011.34 1012.43 1012.89 1013.27 1013.82 1014.35 1014.54 1014.83 1015.40 1015.84 1015.89 1016.32 1016.23 1016.58 1017.14 1017.45 1017.63 1017.67 1017.73 1017.99 1018.06 1018.31 1018.37 1018.59 1018.74 1018.76 1018.93 1018.95 1018.83
1010.10 1010.15 1009.42 1008.25 1007.63 1006.74 1006.13 1005.11 1004.48 1004.52 1004.85 1005.41 1006.44 1008.11 1009.31 1010.61 1008.89 1008.66 1009.11 1010.85 1011.29 1011.43 1011.90 1012.56 1013.11 1013.72 1014.28 1014.79 1015.35 1015.62 1015.84 1016.19 1016.28 1016.51 1016.76 1017.18 1017.29 1017.52 1017.61 1017.69 1017.75 1018.03 1018.18 1018.35 1018.43 1018.47 1018.50 1018.53 1018.42
1009.73 1008.91 1008.29 1007.36 1006.78 1006.51 1005.94 1005.53 1005.26 1005.08 1005.58 1005.72 1007.65 1009.22 1009.10 1011.86 1010.45 1010.92 1009.36 1010.04 1010.96 1011.52 1012.18 1012.41 1012.68 1013.33 1013.54 1014.20 1015.03 1015.20 1015.63 1015.97 1016.08 1016.29 1016.52 1016.76 1017.15 1017.08 1017.33 1017.38 1017.54 1017.77 1017.88 1018.00 1018.11 1018.13 1018.17 1017.99 1017.99
1009.00 1008.26 1007.51 1006.71 1006.43 1006.27 1005.45 1005.64 1005.71 1005.52 1005.42 1006.68 1007.80 1008.97 1009.15 1010.89 1009.56 1009.39 1010.97 1008.20 1010.23 1010.62 1012.71 1012.23 1012.47 1012.75 1013.40 1013.74 1014.18 1014.73 1014.70 1015.01 1015.31 1015.62 1015.86 1016.03 1016.33 1016.55 1016.67 1016.79 1016.97 1017.20 1017.38 1017.58 1017.68 1017.66 1017.66 1017.50 1017.47
1007.95 1007.56 1007.02 1006.55 1006.40 1006.07 1005.81 1005.58 1005.45 1005.36 1005.01 1006.58 1007.96 1008.42 1008.59 1008.65 1008.44 1008.88 1010.70 1011.68 1013.27 1012.53 1012.10 1011.82 1011.84 1012.35 1012.85 1013.32 1013.66 1014.03 1014.07 1014.28 1014.76 1015.05 1015.08 1015.24 1015.45 1015.75 1015.93 1016.11 1016.29 1016.44 1016.60 1016.75 1016.97 1017.01 1017.07 1016.96 1016.83
1008.05 1007.61 1006.96 1006.53 1006.27 1006.21 1005.55 1005.80 1005.47 1005.14 1005.14 1005.62 1007.68 1007.95 1007.44 1006.82 1006.99 1008.17 1009.02 1009.65 1010.85 1011.33 1011.12 1011.88 1011.38 1011.90 1012.45 1013.05 1013.17 1013.43 1013.52 1013.74 1014.18 1014.38 1014.56 1014.65 1014.84 1014.89 1015.23 1015.51 1015.70 1015.67 1015.93 1016.00 1016.29 1016.39 1016.35 1016.57 1016.25
1008.73 1007.97 1007.80 1006.78 1006.18 1005.51 1005.67 1005.43 1005.08 1004.79 1004.96 1005.47 1005.93 1007.34 1007.36 1007.23 1007.62 1007.70 1009.06 1009.69 1010.47 1011.26 1010.58 1010.49 1011.03 1011.71 1011.98 1012.16 1012.63 1012.83 1012.96 1013.17 1013.27 1013.68 1013.88 1014.03 1014.34 1014.40 1014.57 1015.01 1015.08 1014.86 1014.99 1015.27 1015.54 1015.84 1016.18 1016.30 1016.28
1009.11 1008.64 1007.88 1006.80 1005.64 1005.25 1005.33 1005.12 1004.64 1004.22 1004.62 1004.95 1005.14 1005.69 1005.81 1007.51 1007.60 1008.22 1008.24 1008.40 1008.90 1011.50 1010.78 1010.94 1011.05 1011.49 1011.70 1012.02 1012.49 1012.58 1012.55 1012.76 1012.83 1012.97 1013.37 1013.61 1013.74 1013.82 1014.16 1014.49 1014.54 1014.55 1014.75 1015.14 1015.42 1015.72 1015.99 1016.31 1016.22
1009.27 1008.60 1007.59 1006.74 1005.82 1005.21 1005.09 1004.37 1004.37 1003.87 1004.18 1004.46 1004.99 1005.23 1006.33 1007.40 1008.10 1008.55 1009.06 1008.90 1008.35 1008.27 1010.55 1010.07 1010.69 1011.25 1011.68 1011.97 1012.32 1012.60 1012.61 1012.68 1012.71 1012.77 1012.93 1013.18 1013.20 1013.43 1013.78 1013.96 1014.07 1014.28 1014.76 1014.88 1015.17 1015.55 1015.76 1015.86 1015.97
1008.57 1008.07 1007.30 1006.36 1005.53 1005.49 1005.40 1005.28 1004.37 1003.68 1003.89 1004.07 1004.70 1005.38 1006.36 1007.09 1007.92 1008.48 1009.17 1009.42 1009.58 1010.44 1011.29 1010.21 1010.69 1011.21 1011.51 1012.21 1012.64 1012.87 1012.78 1012.71 1012.55 1012.42 1012.34 1012.48 1012.70 1012.71 1013.10 1013.55 1013.88 1014.04 1014.54 1014.65 1014.92 1015.31 1015.70 1015.89 1015.83
1007.80 1007.59 1007.18 1006.25 1005.69 1005.83 1005.69 1005.44 1004.48 1004.03 1003.74 1003.94 1004.28 1005.22 1006.20 1007.28 1007.85 1008.51 1009.13 1010.02 1010.70 1010.55 1010.72 1010.54 1010.79 1010.78 1011.12 1011.70 1012.21 1012.20 1012.31 1012.32 1012.32 1012.09 1011.93 1011.91 1012.07 1012.07 1012.40 1012.90 1013.33 1013.83 1014.38 1014.70 1014.97 1015.39 1015.83 1015.76 1015.45
1007.27 1007.30 1007.08 1006.86 1006.40 1006.25 1006.35 1005.70 1005.01 1004.04 1003.77 1003.80 1003.85 1004.82 1006.04 1006.82 1007.79 1008.49 1009.19 1009.85 1010.34 1010.90 1011.15 1011.15 1011.26 1011.16 1011.17 1011.47 1011.76 1011.81 1012.12 1012.15 1012.37 1012.17 1012.02 1011.77 1011.68 1011.70 1011.73 1012.17 1012.92 1013.54 1014.27 1014.55 1014.58 1014.92 1015.58 1016.03 1016.18
1006.59 1006.69 1006.78 1007.06 1007.45 1007.11 1006.82 1006.39 1006.07 1005.41 1004.34 1004.63 1005.09 1005.52 1006.20 1006.78 1007.56 1008.43 1009.31 1010.16 1010.75 1011.00 1011.17 1011.22 1011.21 1011.27 1011.35 1011.55 1011.75 1011.86 1012.02 1012.17 1011.95 1011.88 1011.56 1011.34 1011.11 1011.07 1011.27 1011.62 1012.25 1012.91 1013.25 1013.79 1014.12 1014.55 1014.91 1015.62 1016.22
1005.96 1006.05 1006.62 1007.25 1007.87 1008.03 1007.39 1008.24 1006.69 1006.26 1005.95 1005.50 1005.27 1005.58 1006.22 1006.98 1007.73 1008.54 1009.27 1010.14 1011.01 1011.62 1011.71 1011.63 1011.54 1011.68 1011.75 1011.60 1011.65 1012.06 1012.22 1012.29 1012.04 1011.92 1011.72 1011.73 1011.49 1010.69 1010.35 1011.04 1011.66 1011.92 1012.73 1013.01 1013.34 1014.03 1014.66 1014.88 1015.86
1005.95 1006.59 1007.05 1007.65 1008.75 1009.05 1008.57 1009.75 1008.43 1009.02 1008.51 1007.08 1006.31 1006.13 1006.67 1007.22 1007.88 1008.51 1009.29 1010.52 1011.43 1011.92 1012.19 1012.15 1012.21 1012.33 1012.09 1012.07 1012.25 1012.49 1012.79 1012.78 1012.51 1012.40 1012.43 1012.34 1012.15 1011.81 1011.59 1011.48 1011.77 1012.94 1015.56 1015.64 1014.55 1014.71 1014.72 1014.79 1014.71
1006.41 1007.78 1009.13 1010.10 1010.80 1010.25 1010.77 1011.69 1011.99 1011.34 1010.93 1009.82 1006.65 1005.78 1006.63 1007.48 1008.35 1009.10 1010.26 1011.00 1012.17 1012.84 1012.98 1013.10 1013.17 1013.15 1012.91 1012.84 1012.88 1013.00 1013.05 1013.07 1013.21 1013.31 1013.33 1013.08 1013.25 1013.33 1013.05 1013.17 1013.42 1012.27 1013.01 1015.90 1016.03 1016.45 1015.17 1015.35 1014.89
1007.80 1008.76 1010.72 1012.68 1013.59 1013.67 1012.81 1012.93 1014.28 1012.60 1013.10 1012.02 1010.99 1011.28 1007.67 1008.87 1009.69 1010.14 1010.50 1011.41 1012.85 1013.46 1013.75 1013.77 1013.87 1013.86 1013.69 1013.48 1013.50 1013.38 1013.38 1013.54 1013.66 1013.71 1013.66 1013.89 1014.10 1014.07 1014.01 1013.46 1012.55 1011.93 1012.09 1013.33 1015.39 1015.48 1015.50 1014.22 1014.54
1008.74 1009.99 1011.70 1013.70 1014.88 1015.81 1014.56 1013.99 1013.34 1014.50 1014.29 1013.81 1014.25 1014.04 1014.80 1011.58 1013.15 1013.46 1011.19 1012.30 1013.39 1014.23 1014.65 1014.48 1014.35 1014.26 1014.21 1014.23 1014.15 1013.96 1013.79 1013.79 1013.92 1013.90 1013.91 1014.13 1014.36 1014.34 1014.15 1013.99 1013.26 1012.62 1012.91 1012.98 1013.18 1014.11 1014.78 1013.56 1013.67
1009.11 1010.40 1012.40 1014.60 1016.74 1017.40 1016.63 1015.93 1015.97 1015.59 1015.96 1016.86 1016.55 1017.44 1017.01 1016.90 1016.27 1016.00 1013.58 1012.93 1013.94 1015.21 1015.00 1015.16 1014.73 1014.83 1014.48 1014.42 1014.63 1014.62 1014.31 1014.12 1014.13 1014.12 1014.07 1014.17 1014.44 1014.45 1014.36 1014.21 1014.50 1014.23 1013.70 1013.32 1013.76 1014.25 1013.83 1013.35 1013.29
1010.27 1011.29 1014.12 1016.28 1017.63 1018.31 1018.18 1017.46 1017.51 1017.56 1017.88 1018.31 1018.12 1018.22 1018.50 1019.26 1018.58 1016.84 1015.92 1014.52 1014.83 1015.29 1015.81 1015.76 1015.47 1015.41 1015.24 1014.74 1014.91 1015.05 1014.86 1014.49 1014.34 1014.45 1014.40 1014.37 1014.54 1014.67 1014.62 1014.46 1014.38 1014.30 1014.15 1014.00 1014.02 1014.20 1013.82 1012.76 1013.30
1010.79 1012.12 1014.08 1016.48 1018.06 1018.65 1019.07 1017.97 1017.45 1017.65 1017.91 1017.88 1018.16 1018.31 1019.09 1019.22 1018.89 1017.56 1016.04 1015.25 1015.59 1015.87 1016.12 1016.27 1016.04 1015.62 1015.75 1015.32 1015.20 1015.53 1015.12 1014.96 1014.87 1014.73 1014.48 1014.29 1014.54 1014.68 1014.60 1014.56 1014.25 1014.01 1013.75 1013.63 1013.80 1013.80 1013.33 1013.33 1013.46
Wind_Speed
4 7 2 3 5 4 6 2 5 7 7 4 10 17 16 8 5 3 7 18 21 12 12 16 18 17 18 19 17 15 14 14 13 13 14 13 13 14 13 13 13 13 14 14 14 13 11 11 11
4 6 2 3 3 2 8 4 8 8 4 8 12 17 16 11 7 11 13 19 19 13 10 13 20 17 16 18 17 15 14 13 12 12 13 13 12 13 13 12 12 12 13 13 13 12 9 8 8
4 4 2 4 3 4 5 6 11 5 10 5 7 7 5 5 11 13 21 21 18 12 11 14 19 19 17 18 18 16 14 13 12 12 12 12 12 11 12 12 11 11 12 12 12 10 7 5 6
2 4 5 2 9 15 7 5 5 1 6 12 13 8 5 5 7 13 24 21 18 14 12 17 19 19 18 17 18 17 15 13 12 13 12 11 11 9 10 11 11 10 11 11 10 9 7 4 3
2 2 1 5 14 13 10 8 9 5 3 4 4 5 4 4 16 26 23 19 19 13 11 13 19 19 18 18 17 16 15 13 12 12 12 11 10 9 8 9 11 11 10 10 9 8 6 3 1
4 2 3 6 10 10 9 9 6 4 10 9 8 8 3 6 10 21 20 19 20 16 12 11 16 19 18 17 17 16 15 14 12 11 12 11 10 10 8 7 8 9 11 10 9 7 6 3 2
3 1 6 9 14 14 15 5 5 2 4 12 12 15 6 3 8 15 16 20 18 19 14 9 10 14 17 17 16 16 15 13 13 12 11 11 10 9 8 7 7 6 6 10 10 8 7 5 5
4 2 9 9 11 15 9 1 0 2 3 12 11 10 14 14 9 9 16 19 18 16 15 11 8 8 9 10 16 16 16 15 13 12 11 11 10 10 8 8 7 6 4 5 9 8 7 6 7
4 1 5 14 9 10 10 4 2 3 4 7 1 10 11 17 11 9 14 17 16 14 16 13 11 8 7 7 10 13 16 16 14 12 12 9 5 7 8 8 9 8 7 6 7 8 8 8 10
5 3 9 14 14 9 10 10 10 6 3 6 4 4 13 17 14 14 14 19 17 15 14 13 13 12 12 10 10 6 9 5 6 7 7 5 6 6 10 10 13 12 11 10 9 9 11 10 5
9 9 10 18 13 11 8 9 9 10 9 4 11 16 17 20 6 13 15 11 14 18 15 16 15 12 11 8 6 5 4 5 5 7 8 7 5 5 5 3 5 4 9 4 6 6 5 7 6
5 12 11 14 12 7 7 7 10 8 6 10 23 17 23 26 11 18 12 18 14 6 10 15 15 13 9 9 8 8 6 5 5 6 9 6 4 4 5 5 5 5 5 6 6 5 7 9 9
8 10 10 13 10 8 8 5 7 11 7 21 22 22 25 27 20 18 18 16 11 7 10 13 16 13 8 12 8 8 8 8 9 9 10 7 5 5 7 7 6 6 5 6 6 7 8 8 9
7 9 11 8 10 7 6 8 4 12 9 13 15 19 20 21 24 11 16 18 14 13 9 14 18 13 11 10 9 9 8 10 8 8 10 11 7 5 5 6 7 7 6 7 7 9 7 8 7
11 8 10 9 7 7 6 9 8 11 10 9 20 15 19 22 21 15 22 27 26 17 20 15 18 13 12 11 10 7 7 8 7 8 10 12 8 8 6 5 5 6 6 9 6 6 5 4 3
8 7 4 9 10 14 7 11 9 11 9 11 8 21 17 19 18 8 14 19 17 23 21 17 15 12 8 8 6 5 5 5 8 7 9 14 11 8 6 5 5 5 4 4 3 3 2 3 4
6 8 10 12 14 13 12 11 11 12 8 9 9 8 7 14 12 11 10 17 14 4 2 8 13 13 9 7 5 5 4 3 4 4 5 10 12 11 7 5 5 5 4 4 3 4 4 3 4
8 7 8 9 10 7 10 12 10 10 8 7 10 10 13 16 9 13 11 13 11 13 16 8 11 11 8 5 5 3 4 3 4 5 5 9 10 10 7 5 6 4 4 4 3 5 4 4 5
13 15 15 13 10 8 9 8 10 8 8 11 9 7 14 16 11 11 13 6 7 8 19 8 9 11 8 3 3 2 3 3 3 5 7 8 10 11 9 6 6 5 5 6 5 3 5 4 4
12 10 11 8 9 11 11 14 9 8 7 7 8 12 17 13 12 11 10 10 6 6 6 7 5 5 6 5 4 4 4 4 4 5 7 7 11 11 10 9 8 8 4 5 4 4 2 3 4
10 6 6 10 7 11 11 15 10 7 5 1 3 13 15 17 13 11 11 9 9 8 7 6 6 6 4 3 2 2 2 2 2 3 4 7 10 11 12 11 9 6 5 6 7 5 6 4 3
7 9 12 10 7 6 7 14 9 9 10 8 7 8 14 15 13 12 12 10 9 7 8 8 7 6 5 3 4 4 2 3 3 4 4 8 10 13 14 12 12 10 6 7 5 5 4 4 4
11 7 8 6 9 7 12 3 8 6 9 7 11 12 14 14 13 11 11 13 9 8 7 7 8 10 9 7 4 2 3 3 2 3 6 4 6 11 15 13 12 14 8 7 7 5 5 4 3
13 7 6 5 4 9 8 4 16 7 5 4 3 9 13 15 15 12 12 11 8 8 7 8 9 8 9 8 9 9 7 6 5 7 7 8 6 7 7 7 5 18 21 16 6 4 5 5 4
2 8 5 7 5 10 6 11 7 17 28 35 16 17 15 16 15 14 11 11 9 8 7 7 8 8 8 8 9 8 8 9 9 7 6 9 9 8 9 6 3 2 14 22 16 14 5 5 3
6 4 5 3 3 7 13 4 5 17 23 26 37 31 13 15 11 11 13 11 10 9 8 7 6 6 7 8 8 7 8 5 4 5 6 6 6 6 7 6 5 5 17 20 12 11 12 5 4
5 2 9 4 3 2 4 6 4 20 24 21 26 33 31 28 23 14 14 14 9 9 8 7 8 7 8 8 7 7 6 6 5 7 5 4 5 5 4 2 3 6 14 20 16 8 12 6 5
6 1 5 4 3 6 5 4 4 12 15 15 15 17 18 21 14 16 12 12 11 7 7 9 9 6 7 8 7 6 7 7 6 6 7 7 6 7 6 6 4 6 8 12 12 9 7 6 5
6 2 7 5 3 4 3 2 4 4 6 10 10 12 13 12 15 6 5 8 8 7 8 7 8 8 7 7 6 7 7 7 7 6 6 6 5 6 6 5 5 3 11 12 11 12 10 5 7
3 4 6 6 2 2 3 7 8 9 10 10 10 9 10 13 13 10 4 4 6 6 6 5 6 7 6 6 7 6 6 7 7 7 7 6 5 4 4 5 5 5 5 14 9 10 4 6 9
Wind_Direction
285 264 210 319 34 85 259 265 8 320 65 75 62 83 79 62 40 164 110 112 118 132 135 131 131 131 132 129 127 125 123 122 120 118 116 114 113 113 112 112 111 111 107 101 95 90 85 85 90
321 309 179 274 88 351 283 116 10 256 200 115 85 94 76 92 78 115 117 125 120 131 129 131 131 132 133 129 130 127 125 124 124 124 121 119 121 123 122 121 120 118 115 110 104 99 89 82 82
306 243 57 156 198 226 259 140 219 255 181 121 86 57 66 80 130 150 121 120 124 124 131 138 133 134 137 136 134 131 131 132 133 131 127 127 128 131 136 134 132 129 123 118 114 111 102 80 63
291 347 331 68 264 271 224 275 249 237 326 46 98 82 61 333 133 120 125 130 130 123 132 139 137 137 141 142 139 137 139 141 140 136 132 132 134 136 137 143 144 139 133 129 125 124 118 77 41
275 296 237 259 263 262 271 259 221 103 95 42 104 100 75 23 111 128 133 136 127 125 134 142 141 140 143 144 142 142 144 146 142 139 138 139 142 142 150 160 156 152 147 145 142 141 133 121 340
316 117 9 264 283 280 219 249 82 57 170 182 75 98 58 134 123 139 140 140 126 131 134 143 145 145 147 148 148 148 147 148 143 143 143 145 150 154 163 163 156 155 161 163 156 154 155 165 266
190 19 260 290 292 308 314 105 94 87 49 185 166 80 303 136 146 138 143 124 132 134 135 140 150 149 149 149 152 151 147 149 148 147 148 152 157 163 171 169 167 182 212 171 159 165 172 191 225
181 98 303 278 285 286 303 350 88 98 68 129 125 167 180 168 161 143 120 132 135 134 135 141 142 148 150 157 157 155 152 153 154 152 157 161 163 166 179 177 178 176 176 164 166 171 181 202 229
263 343 273 275 279 293 327 333 280 71 32 64 95 145 156 151 156 145 126 138 135 141 142 145 153 158 155 148 163 158 160 158 155 155 166 167 170 176 182 192 191 189 184 193 186 181 193 207 233
166 192 241 258 283 314 330 8 334 27 68 72 101 59 143 159 165 169 169 149 142 146 150 155 161 173 166 164 157 155 162 172 157 157 171 180 194 189 186 198 197 191 189 193 197 194 204 211 234
242 232 253 271 279 287 324 338 335 356 346 73 172 83 44 14 248 192 181 118 146 160 157 166 166 172 168 158 161 162 164 172 172 175 176 203 201 198 206 179 185 184 197 199 201 209 209 208 222
231 249 240 262 273 299 315 328 330 316 286 83 92 98 79 354 316 288 156 129 117 112 193 170 162 172 172 149 170 170 169 177 180 187 190 192 198 212 179 183 186 185 202 199 202 202 215 217 221
240 249 251 264 280 283 305 292 273 296 305 100 119 118 126 191 255 269 117 114 104 119 269 175 165 177 154 162 169 179 177 181 193 187 192 197 191 209 180 200 185 199 193 196 209 207 210 220 217
259 258 248 265 275 289 263 276 277 284 285 127 126 140 153 180 224 237 128 127 135 239 209 185 171 177 152 165 171 187 181 187 187 191 194 198 197 198 203 195 196 202 203 195 208 211 210 213 208
307 295 309 301 276 266 295 301 253 252 267 269 146 169 169 186 209 222 158 152 173 195 201 193 167 172 162 167 179 192 194 181 187 189 191 193 200 199 197 217 220 198 195 196 194 194 192 202 219
318 312 296 274 260 257 191 252 252 265 239 257 206 180 197 207 226 223 101 144 165 190 201 157 162 172 171 165 171 184 186 178 183 181 186 197 201 200 199 201 209 223 221 217 195 200 215 209 207
287 256 259 272 249 246 196 234 241 252 238 237 236 188 171 98 60 68 74 93 92 59 49 154 160 170 165 169 171 191 207 203 204 177 170 195 197 204 193 205 225 226 220 199 188 216 184 184 228
267 274 275 254 274 323 297 213 231 235 258 239 234 194 105 98 84 86 88 113 116 123 253 159 157 161 166 162 163 185 209 241 210 206 198 193 202 198 195 199 220 230 227 214 198 196 213 184 199
256 271 279 286 309 4 310 290 253 229 241 258 229 147 123 111 114 96 107 104 105 163 227 160 143 165 153 147 164 175 203 234 231 224 213 206 198 195 191 194 199 224 217 210 197 204 217 233 203
280 295 296 305 335 322 315 303 267 237 238 222 161 127 130 120 109 109 107 114 128 109 78 63 69 124 153 153 183 186 178 221 223 215 224 202 202 198 192 193 202 216 209 216 224 204 221 221 205
258 266 297 293 284 297 312 294 295 273 288 194 152 132 130 128 125 120 116 109 92 80 81 77 65 65 57 51 179 195 171 247 273 272 238 227 206 206 202 198 193 201 200 205 212 198 197 209 300
240 243 266 288 298 254 226 279 296 280 229 155 117 113 130 129 120 115 108 97 96 83 73 68 63 60 74 43 53 52 216 226 231 214 230 228 210 209 204 201 196 198 201 211 211 209 184 127 225
261 246 279 267 294 314 286 319 279 280 269 195 165 147 133 125 116 111 114 111 96 82 74 64 58 53 43 38 120 110 331 340 315 325 340 349 288 236 207 199 190 198 194 202 198 178 185 167 161
295 328 293 279 227 259 283 238 281 320 340 333 250 128 131 128 124 108 93 92 92 80 70 57 54 47 42 48 43 57 50 16 13 3 354 350 353 327 303 290 318 64 17 336 349 266 210 200 182
351 56 343 337 331 258 12 337 67 355 353 346 200 165 145 131 121 113 106 94 89 90 79 74 54 47 46 50 45 43 43 41 42 20 5 2 7 24 357 351 268 22 53 335 325 319 288 240 200
329 147 170 218 305 313 340 255 348 10 360 5 26 6 105 113 117 116 115 101 84 72 60 71 78 64 54 54 52 47 41 45 42 28 18 23 28 351 342 342 289 148 157 191 223 261 281 193 213
326 9 159 152 177 199 271 304 17 9 7 9 18 23 344 37 15 26 83 81 79 78 61 48 50 56 51 36 30 26 36 37 32 21 17 24 26 21 13 315 326 181 193 191 211 246 264 222 199
213 68 27 13 157 255 274 255 289 24 29 13 33 37 2 355 28 352 8 64 64 58 57 28 30 53 61 41 25 22 25 27 23 23 14 20 27 17 22 41 158 245 231 209 221 257 272 276 232
342 78 72 113 154 250 324 260 134 118 70 78 52 34 29 350 338 349 269 46 53 56 54 42 17 30 30 39 27 18 4 8 10 10 355 359 25 29 18 25 38 204 226 226 233 241 248 257 303
60 103 112 120 177 81 176 262 155 169 158 126 120 93 15 346 315 294 260 57 90 76 45 44 14 26 22 18 24 6 7 357 356 347 336 340 354 14 29 19 3 10 32 233 244 233 274 316 292